Regional Weather Roundup
Issued by NWS

Home | Current Version | Previous Version | Text Only | Print | Product List | Glossary Off
Versions: 1 2 3 4 5 6 7 8 9 10 11 12 13 14 15 16 17 18 19 20 21 22 23 24 25 26 27 28 29 30 31 32 33 34 35 36 37 38 39 40 41 42 43 44 45 46 47 48 49 50

151
ASUS45 KBOI 222010
RWRID

IDAHO REGIONAL WEATHER ROUNDUP
NATIONAL WEATHER SERVICE BOISE ID
200 PM MDT TUE AUG 22 2017

NOTE: "FAIR" INDICATES FEW OR NO CLOUDS BELOW 12000 FEET
WITH NO SIGNIFICANT WEATHER AND/OR OBSTRUCTIONS TO VISIBILITY

IDZ012-014-222100-
SOUTHWEST IDAHO


CITY           SKY/WX    TMP DP  RH WIND       PRES   REMARKS
BOISE          SUNNY     87  43  21 VRB3      30.09F
CALDWELL       SUNNY     86  48  26 CALM      30.08F
MOUNTAIN HOME  SUNNY     89  41  18 NW6       30.09F
$$

IDZ016-017-222100-
SOUTHCENTRAL IDAHO


CITY           SKY/WX    TMP DP  RH WIND       PRES   REMARKS
BURLEY         SUNNY     86  38  18 N6        30.15F
JEROME         SUNNY     84  48  28 NW3       30.16F
TWIN FALLS     SUNNY     86  41  20 N6        30.16F
$$

IDZ019>023-222100-
SOUTHEAST IDAHO


CITY           SKY/WX    TMP DP  RH WIND       PRES   REMARKS
IDAHO FALLS    SUNNY     84  29  13 VRB5      30.21F
POCATELLO      SUNNY     88  29  12 NW8       30.19F
REXBURG        SUNNY     82  34  17 CALM      30.21F
$$

IDZ006-010-011-018-031-032-222100-
CENTRAL IDAHO MOUNTAINS


CITY           SKY/WX    TMP DP  RH WIND       PRES   REMARKS
MCCALL         SUNNY     81  39  22 SW6       30.21F
HAILEY         MOSUNNY   81  43  26 SE10      30.25F
STANLEY          N/A     82  25  12 VRB3      30.30F
SALMON         SUNNY     79  40  24 NW5       30.14F
CHALLIS        SUNNY     83  36  18 VRB3      30.18F
$$

IDZ002-004-006-007-026-222100-
NORTHERN IDAHO


CITY           SKY/WX    TMP DP  RH WIND       PRES   REMARKS
LEWISTON       SUNNY     86  46  24 NW6       30.00F
LOWELL           N/A     85  48  27 CALM      30.01F
COEUR D`ALENE  SUNNY     86  43  22 SE5       30.05F
MULLAN PASS    SUNNY     74  36  25 CALM      30.26F
$$




USA.gov is the U.S. government's official web portal to all federal, state and local government web resources and services.